CW0621 Weather Reports


Display with metric or nautical units.
time (UTC)temp
F
wind
direction
speed
MPH
gust
MPH
rain 1hr
in
rain 24hr
in
rain mn
in
humidity
%
barometer
mb
20260905201557 76 10 0.0 0.0 0.00 0.00 0.00 85 1013.1
20260905200026 77 306 0.0 0.0 0.00 0.01 0.00 83 1013.1
20260905194552 76 304 0.0 1.0 0.00 0.01 0.00 82 1013.0
20260905193019 76 25 0.0 0.0 0.00 0.01 0.00 84 1013.1
20260905191546 76 10 0.0 0.0 0.00 0.01 0.00 85 1013.2
20260905190013 76 28 0.0 0.0 0.00 0.01 0.00 84 1013.2
20260905184553 76 41 0.0 0.0 0.00 0.01 0.00 83 1013.2
20260905183007 76 44 0.0 0.0 0.00 0.01 0.00 84 1013.3
20260905181537 76 43 0.0 2.0 0.00 0.01 0.00 84 1013.4
20260905180006 76 23 0.0 0.0 0.00 0.01 0.00 85 1013.3
20260905174536 76 15 0.0 0.0 0.00 0.01 0.00 86 1013.4
20260905173123 75 37 0.0 0.0 0.00 0.01 0.00 86 1013.4
20260905171523 75 236 0.0 0.0 0.00 0.01 0.00 88 1013.6
20260905170105 75 41 0.0 0.0 0.00 0.01 0.00 90 1013.8
20260905164524 74 335 0.0 0.0 0.00 0.01 0.00 94 1013.7
20260905163036 73 41 0.0 2.0 0.00 0.01 0.00 96 1013.7
20260905161505 71 28 0.0 4.0 0.00 0.01 0.00 96 1013.7
20260905160030 70 34 0.0 6.0 0.00 0.01 0.00 96 1014.0
20260905154610 70 36 1.0 4.0 0.00 0.01 0.00 96 1013.7
20260905153025 70 39 0.0 3.0 0.00 0.01 0.00 96 1013.8
20260905151558 70 27 1.0 5.0 0.00 0.01 0.00 96 1013.6
20260905150026 69 29 0.0 3.0 0.00 0.01 0.00 96 1013.6
20260905144555 69 240 0.0 0.0 0.00 0.01 0.00 96 1013.7
20260905143021 69 239 0.0 0.0 0.00 0.01 0.00 96 1013.4
20260905141547 69 353 0.0 1.0 0.00 0.01 0.00 96 1013.3
20260905140012 68 353 0.0 0.0 0.00 0.01 0.00 96 1013.2
20260905134538 68 353 0.0 0.0 0.00 0.01 0.00 96 1013.2
20260905133006 67 353 0.0 1.0 0.00 0.01 0.00 96 1013.3
20260905131536 66 27 0.0 3.0 0.00 0.01 0.00 96 1013.2
20260905130001 67 32 0.0 1.0 0.00 0.01 0.00 96 1013.3
20260905124530 66 32 0.0 1.0 0.00 0.01 0.00 96 1013.1
20260905123105 66 254 0.0 0.0 0.00 0.01 0.00 96 1013.0
20260905121517 66 15 0.0 1.0 0.00 0.01 0.00 96 1012.8
20260905120043 65 19 1.0 4.0 0.00 0.01 0.00 97 1012.7
20260905114509 65 310 0.0 0.0 0.00 0.01 0.00 97 1012.2
20260905113036 64 310 0.0 0.0 0.00 0.01 0.00 97 1012.1
20260905111506 65 310 0.0 0.0 0.00 0.01 0.00 97 1011.8
20260905110030 65 310 0.0 0.0 0.00 0.01 0.00 97 1011.7
20260905104558 65 310 0.0 0.0 0.00 0.01 0.00 97 1011.7
20260905103023 65 310 0.0 0.0 0.00 0.01 0.00 97 1011.9
20260905101601 66 310 0.0 0.0 0.00 0.01 0.00 97 1011.8
20260905100039 66 310 0.0 0.0 0.00 0.01 0.00 96 1011.7
20260905094550 66 310 0.0 0.0 0.00 0.01 0.00 96 1011.7
20260905093015 66 310 0.0 0.0 0.00 0.01 0.00 96 1011.7
20260905091555 66 91 0.0 0.0 0.00 0.01 0.00 96 1011.6
20260905090010 66 98 0.0 0.0 0.00 0.01 0.00 96 1011.9
20260905084548 66 98 0.0 0.0 0.00 0.01 0.00 96 1012.3
20260905083006 66 98 0.0 0.0 0.00 0.01 0.00 96 1012.7
20260905081538 66 237 0.0 2.0 0.00 0.01 0.00 96 1012.7
20260905080002 66 259 0.0 1.0 0.00 0.01 0.00 96 1011.6
20260905074531 66 143 0.0 0.0 0.00 0.01 0.00 96 1011.9
20260905073107 65 143 0.0 1.0 0.00 0.01 0.00 96 1011.6
20260905071527 65 136 0.0 2.0 0.00 0.01 0.00 96 1012.8
20260905070055 66 205 0.0 7.0 0.00 0.01 0.00 96 1014.0
20260905064517 66 96 0.0 5.0 0.00 0.01 0.00 96 1012.3
20260905063045 66 255 2.0 9.0 0.00 0.01 0.00 95 1013.3
20260905061504 67 9 1.0 10.0 0.00 0.01 0.00 90 1012.3
20260905060040 72 354 3.0 10.0 0.00 0.01 0.00 88 1012.7
20260905054707 72 34 6.0 11.0 0.00 0.01 0.00 90 1012.2
20260905053024 71 243 0.0 0.0 0.00 0.01 0.00 92 1012.2
20260905051552 71 219 0.0 0.0 0.00 0.01 0.00 93 1011.9
20260905050016 71 209 0.0 0.0 0.00 0.01 0.00 94 1012.2
20260905044547 71 275 0.0 0.0 0.00 0.01 0.00 94 1012.3
20260905043009 72 211 0.0 0.0 0.00 0.01 0.00 94 1012.6
20260905041539 72 211 0.0 0.0 0.00 0.01 0.00 94 1012.8
20260905040002 72 211 0.0 0.0 0.00 0.01 0.01 93 1012.8
20260905034532 72 160 0.0 0.0 0.00 0.01 0.01 93 1013.2
20260905033102 73 160 0.0 0.0 0.00 0.01 0.01 93 1013.5
20260905031530 73 249 0.0 0.0 0.00 0.01 0.01 93 1013.5
20260905030059 73 250 0.0 0.0 0.00 0.01 0.01 92 1013.5
20260905024525 73 236 0.0 0.0 0.00 0.01 0.01 92 1013.2
20260905023052 74 296 0.0 0.0 0.00 0.01 0.01 92 1013.5
20260905021516 74 297 0.0 0.0 0.00 0.01 0.01 91 1013.4
20260905020052 74 307 0.0 0.0 0.00 0.01 0.01 91 1013.4
20260905014510 74 245 0.0 0.0 0.00 0.01 0.01 90 1013.2
20260905013039 75 245 0.0 0.0 0.00 0.01 0.01 90 1013.0
20260905011503 76 245 0.0 0.0 0.00 0.01 0.01 89 1013.1
20260905010026 76 243 0.0 0.0 0.00 0.01 0.01 88 1012.9
20260905004553 77 243 0.0 0.0 0.00 0.01 0.01 87 1013.0
20260905003021 78 37 0.0 0.0 0.00 0.01 0.01 86 1013.0
20260905001545 78 37 0.0 0.0 0.00 0.01 0.01 85 1012.9
20260905000010 78 38 0.0 0.0 0.00 0.01 0.01 84 1012.9
20260904234541 79 222 0.0 0.0 0.00 0.01 0.01 81 1012.9
20260904233008 79 221 0.0 0.0 0.00 0.01 0.01 80 1012.7
20260904231549 80 221 0.0 0.0 0.00 0.01 0.01 77 1012.7
20260904230005 80 222 0.0 0.0 0.00 0.01 0.01 75 1012.5
20260904224531 81 221 0.0 0.0 0.00 0.01 0.01 74 1012.4
20260904223100 82 221 0.0 0.0 0.00 0.01 0.01 74 1012.2
20260904221525 82 231 0.0 0.0 0.00 0.01 0.01 72 1012.0
20260904220058 83 247 0.0 0.0 0.00 0.01 0.01 71 1012.0
20260904214522 84 222 0.0 0.0 0.00 0.01 0.01 71 1011.7
20260904213047 85 222 0.0 0.0 0.00 0.01 0.01 66 1011.7
20260904211516 85 151 0.0 2.0 0.00 0.01 0.01 68 1011.9
20260904210038 85 58 0.0 0.0 0.00 0.01 0.01 68 1011.8
20260904204502 85 224 0.0 2.0 0.00 0.01 0.01 68 1011.7
20260904203048 85 198 0.0 1.0 0.01 0.01 0.01 68 1012.1